FW3234 Weather Reports


time (UTC)temp
F
wind
direction
speed
knots
gust
knots
rain 1hr
in
rain 24hr
in
rain mn
in
humidity
%
barometer
mb
20210723154708 64 120 5.2 9.6 0.00 0.00 0.00 43 1020.1
20210723153125 64 139 4.3 7.8 0.00 0.00 0.00 42 1020.2
20210723151557 62 151 3.5 11.3 0.00 0.00 0.00 43 1020.1
20210723150059 63 176 3.5 8.7 0.00 0.00 0.00 42 1020.0
20210723144602 62 143 1.7 7.0 0.00 0.00 0.00 43 1019.6
20210723143105 61 162 0.9 4.3 0.00 0.00 0.00 43 1019.4
20210723141637 59 129 0.0 4.3 0.00 0.00 0.00 44 1019.3
20210723140038 58 353 0.0 0.9 0.00 0.00 0.00 45 1019.2
20210723134610 55 304 0.0 1.7 0.00 0.00 0.00 47 1019.0
20210723133016 53 51 0.0 2.6 0.00 0.00 0.00 50 1018.9
20210723131517 53 155 0.0 2.6 0.00 0.00 0.00 50 1019.0
20210723130021 52 188 0.9 2.6 0.00 0.00 0.00 50 1018.7
20210723124521 51 122 0.0 2.6 0.00 0.00 0.00 53 1018.6
20210723123009 49 129 0.0 0.9 0.00 0.00 0.00 55 1018.6
20210723121513 49 199 0.0 0.0 0.00 0.00 0.00 54 1018.5
20210723120014 49 200 0.0 0.0 0.00 0.00 0.00 55 1018.5
20210723114524 49 200 0.0 0.0 0.00 0.00 0.00 56 1018.4
20210723113009 49 200 0.0 0.0 0.00 0.00 0.00 55 1018.3
20210723111504 48 200 0.0 0.0 0.00 0.00 0.00 57 1018.1
20210723110005 48 200 0.0 0.0 0.00 0.00 0.00 58 1018.1
20210723103213 46 200 0.0 0.0 0.00 0.00 0.00 60 1017.8
20210723101710 46 200 0.0 0.0 0.00 0.00 0.00 61 1017.7
20210723100123 46 200 0.0 0.0 0.00 0.00 0.00 61 1017.5
20210723094648 46 200 0.0 0.0 0.00 0.00 0.00 61 1017.5
20210723093106 47 200 0.0 0.0 0.00 0.00 0.00 59 1017.4
20210723091637 47 200 0.0 0.0 0.00 0.00 0.00 60 1017.4
20210723090134 47 200 0.0 0.0 0.00 0.00 0.00 61 1017.4
20210723084634 47 200 0.0 0.0 0.00 0.00 0.00 60 1017.3
20210723083102 48 200 0.0 0.0 0.00 0.00 0.00 59 1017.3
20210723081611 49 200 0.0 0.0 0.00 0.00 0.00 56 1017.2
20210723080148 50 200 0.0 0.0 0.00 0.00 0.00 54 1017.2
20210723074645 50 200 0.0 0.0 0.00 0.00 0.00 52 1017.1
20210723073052 50 200 0.0 0.0 0.00 0.00 0.00 52 1016.9
20210723071620 51 200 0.0 0.0 0.00 0.00 0.00 54 1017.1
20210723070124 52 200 0.0 0.0 0.00 0.00 0.00 50 1016.8
20210723064627 52 200 0.0 0.0 0.00 0.00 0.00 51 1016.8
20210723063033 53 200 0.0 0.0 0.00 0.00 0.00 48 1016.8
20210723061636 53 200 0.0 0.0 0.00 0.00 0.00 50 1016.8
20210723060058 54 200 0.0 0.0 0.00 0.00 0.00 47 1016.8
20210723054527 54 200 0.0 0.0 0.00 0.00 0.00 50 1016.8
20210723053204 55 200 0.0 0.0 0.00 0.00 0.00 48 1016.7
20210723051545 56 200 0.0 0.0 0.00 0.00 0.00 44 1016.6
20210723050046 56 200 0.0 0.0 0.00 0.00 0.00 48 1016.5
20210723044617 57 200 0.0 0.0 0.00 0.00 0.00 45 1016.3
20210723043106 58 200 0.0 0.0 0.00 0.00 0.00 47 1016.2
20210723041625 59 200 0.0 0.0 0.00 0.00 0.00 42 1016.0
20210723040034 61 200 0.0 0.0 0.00 0.00 0.00 41 1015.8
20210723034529 63 200 0.0 0.0 0.00 0.00 0.00 36 1015.7
20210723033025 66 200 0.0 0.0 0.00 0.00 0.00 36 1015.5
20210723031601 68 200 0.0 0.0 0.00 0.00 0.00 31 1015.3
20210723030049 70 200 0.0 0.0 0.00 0.00 0.00 28 1015.3
20210723024541 72 200 0.0 0.0 0.00 0.00 0.00 27 1015.3
20210723023103 73 200 0.0 0.0 0.00 0.00 0.00 25 1015.2
20210723021613 74 200 0.0 0.9 0.00 0.00 0.00 24 1015.2
20210723020105 75 207 0.0 1.7 0.00 0.00 0.00 24 1015.2
20210723014527 76 205 0.0 0.0 0.00 0.00 0.00 22 1015.2
20210723013115 77 214 0.0 2.6 0.00 0.00 0.00 22 1015.2
20210723011523 78 295 0.9 3.5 0.00 0.00 0.00 21 1015.3
20210723010038 79 224 0.0 0.0 0.00 0.00 0.00 20 1015.4
20210723004548 79 44 0.9 1.7 0.00 0.00 0.00 21 1015.4
20210723003013 81 120 0.0 1.7 0.00 0.00 0.00 21 1015.4
20210723001511 80 335 0.0 5.2 0.00 0.00 0.00 20 1015.5
20210723000038 81 212 0.0 2.6 0.00 0.00 0.00 22 1015.5
20210722234512 80 174 1.7 5.2 0.00 0.00 0.00 24 1015.7
20210722233009 81 257 0.0 7.8 0.00 0.00 0.00 21 1015.8
20210722231533 81 176 0.0 3.5 0.00 0.00 0.00 22 1016.1
20210722230021 81 256 0.9 3.5 0.00 0.00 0.00 22 1016.2
20210722224507 80 135 1.7 7.8 0.00 0.00 0.00 23 1016.2
20210722223003 81 144 0.0 2.6 0.00 0.00 0.00 22 1016.4
20210722221505 80 152 0.0 3.5 0.00 0.00 0.00 23 1016.5
20210722220153 80 280 1.7 7.0 0.00 0.00 0.00 24 1016.4
20210722214650 79 218 0.0 6.1 0.00 0.00 0.00 22 1016.5
20210722213140 79 330 0.9 3.5 0.00 0.00 0.00 25 1016.5
20210722211707 78 160 0.9 6.1 0.00 0.00 0.00 25 1016.5
20210722210154 77 146 0.0 5.2 0.00 0.00 0.00 26 1016.6
20210722204647 78 188 0.0 6.1 0.00 0.00 0.00 26 1016.6
20210722203128 78 140 0.9 5.2 0.00 0.00 0.00 27 1016.7
20210722201715 77 123 0.9 5.2 0.00 0.00 0.00 27 1016.8
20210722200225 76 138 3.5 6.1 0.00 0.00 0.00 29 1016.9
20210722194621 76 294 0.9 4.3 0.00 0.00 0.00 27 1017.0
20210722193103 76 307 0.9 4.3 0.00 0.00 0.00 29 1017.0
20210722191657 74 250 0.9 5.2 0.00 0.00 0.00 33 1017.1
20210722190115 74 247 0.9 5.2 0.00 0.00 0.00 34 1017.3
20210722184610 74 48 0.0 2.6 0.00 0.00 0.00 33 1017.3
20210722183109 72 231 0.9 2.6 0.00 0.00 0.00 35 1017.5
20210722181543 71 322 0.0 7.0 0.00 0.00 0.00 37 1017.5
20210722180148 70 297 0.9 6.1 0.00 0.00 0.00 37 1017.6
20210722174658 70 42 0.0 4.3 0.00 0.00 0.00 41 1017.6
20210722173037 68 208 0.9 6.1 0.00 0.00 0.00 43 1017.6
20210722171551 68 266 1.7 7.0 0.00 0.00 0.00 43 1017.6
20210722170131 66 179 0.0 5.2 0.00 0.00 0.00 44 1017.6
20210722164603 64 150 0.0 8.7 0.00 0.00 0.00 51 1017.5
20210722163027 63 186 2.6 8.7 0.00 0.00 0.00 48 1017.7
20210722161547 62 136 1.7 7.8 0.00 0.00 0.00 52 1017.8
20210722160034 61 203 2.6 7.8 0.00 0.00 0.00 54 1017.7